Dewpoint
69 69 68 67 66 66 69 69 71 73 73 73 73 73 72 72 73 71 70 69 66 65
71 69 69 68 68 66 69 71 71 73 72 73 73 73 73 72 72 72 70 69 70 67
69 72 70 68 69 71 67 70 71 71 73 72 72 72 72 73 72 72 72 71 69 69
68 68 72 70 68 68 70 67 70 71 72 73 72 72 72 72 74 72 72 72 70 69
71 69 69 72 70 69 69 70 68 72 72 73 73 72 72 72 73 73 72 72 71 70
71 71 70 69 73 71 69 70 71 73 72 73 73 73 73 72 72 73 73 73 72 71
71 72 72 70 70 73 72 68 72 73 73 73 73 72 72 73 73 72 72 73 73 71
71 72 73 72 71 71 72 73 70 72 73 73 73 73 73 72 72 73 72 72 73 73
72 71 72 73 73 71 71 71 73 72 73 73 73 69 68 71 72 72 72 72 72 72
71 72 72 72 73 73 72 71 70 71 72 72 73 66 66 68 72 72 72 72 72 72
72 72 72 72 72 72 73 73 72 71 71 72 72 65 64 66 72 72 72 72 72 72
71 72 72 72 72 72 72 72 73 73 73 71 72 64 62 64 71 72 72 72 72 73
70 71 72 72 72 72 72 72 72 73 73 71 73 64 61 64 71 71 72 72 73 66
68 70 71 72 72 72 72 72 72 72 73 73 73 73 60 60 72 73 72 72 72 72
Lifted_Index
-2 -2 -2 -1 -1 -1 -1 -2 -3 -3 -4 -4 -4 -4 -4 -4 -4 -4 -3 -3 -2 -1
-2 -2 -2 -2 -1 -1 -1 -2 -3 -3 -4 -4 -4 -4 -4 -4 -4 -4 -4 -3 -3 -2
-2 -2 -2 -2 -2 -1 -2 -2 -3 -3 -4 -4 -4 -4 -4 -4 -5 -5 -5 -4 -4 -3
-2 -2 -2 -2 -2 -2 -2 -2 -3 -3 -4 -4 -4 -4 -4 -4 -5 -6 -6 -6 -5 -4
-2 -2 -2 -3 -3 -2 -2 -3 -3 -3 -4 -4 -5 -5 -5 -5 -5 -6 -6 -6 -6 -6
-3 -3 -2 -2 -3 -3 -3 -3 -3 -3 -4 -5 -5 -5 -5 -5 -5 -5 -6 -6 -6 -6
-3 -3 -3 -3 -3 -3 -3 -3 -3 -3 -4 -5 -5 -5 -5 -5 -5 -5 -5 -6 -6 -6
-4 -4 -4 -4 -4 -3 -3 -3 -4 -4 -5 -5 -6 -6 -6 -5 -5 -5 -5 -5 -6 -6
-5 -5 -5 -5 -5 -4 -4 -4 -4 -5 -5 -6 -6 -6 -6 -6 -6 -6 -6 -6 -6 -6
-6 -6 -6 -6 -6 -5 -5 -5 -5 -5 -6 -6 -7 -7 -7 -7 -7 -7 -6 -6 -6 -6
-7 -7 -7 -7 -6 -6 -6 -6 -6 -6 -6 -6 -7 -7 -8 -7 -7 -7 -7 -7 -7 -7
-7 -7 -7 -7 -7 -7 -7 -7 -7 -7 -7 -7 -7 -8 -8 -8 -7 -7 -7 -7 -7 -7
-7 -7 -7 -7 -7 -7 -7 -7 -7 -7 -7 -7 -8 -8 -8 -8 -7 -7 -7 -7 -7 -7
-7 -7 -8 -8 -7 -7 -7 -8 -8 -8 -8 -8 -8 -8 -8 -8 -8 -7 -7 -7 -7 -7